Back to catalog

MIDAS 5 DEB

AlivePO
NORAD 274·DEBRIS·🇺🇸 United States

Launched Apr 9, 1962 from Vandenberg Space Force Base

Loading…

Next Passes (next 24 hours)

TLE

FreshSource: Space-Track

Epoch: Sep 7, 2026, 11:24 UTC

1 00274U 62010D   26250.47552112 -.00000068  00000-0 -15006-1 0  9993
2 00274  86.6717 321.7576 0345750  69.1450 294.6114  9.39364601208514

Track MIDAS 5 DEB in real time with AllMySat

Download on the App Store